EWG896 EDDK-LIRP

Flight info

Callsign EWG896
Flight time 1h 30m
Altitude 34000
Route KUMIK2Q KUMIK Y854 BOMBI DCT GIGET DCT ABUKA/N0443F370 DCT BANUX/N0445F380 DCT KRH DCT NATOR/N0442F370 DCT TRA DCT RIPUS DCT GERSA DCT SOSON DCT ODINA DCT SRN DCT OSBUL DCT EKPAL DCT MIVKI
Aircraft A319/M-SDE3FGHIRWY/LB1

Departure

Time 2026-05-04 16:15
Airport Cologne Bonn Airport (EDDK)

Arrival

Time 2026-05-04 17:45
Airport Pisa International Airport (LIRP)
Time Latitude Longitude Altitude Speed Heading
2026-05-04 16:04 50.87834 7.12450 230 ft 0 kts 288°
2026-05-04 16:09 50.87821 7.12514 230 ft 4 kts 292°
2026-05-04 16:09 50.87790 7.12561 230 ft 0 kts 18°
2026-05-04 16:12 50.87798 7.12565 230 ft 4 kts 18°
2026-05-04 16:13 50.87920 7.12629 233 ft 14 kts 23°
2026-05-04 16:13 50.88008 7.12911 238 ft 16 kts 97°
2026-05-04 16:14 50.87640 7.13499 247 ft 87 kts 137°
2026-05-04 16:14 50.86251 7.15522 526 ft 161 kts 136°
2026-05-04 16:15 50.83922 7.18828 1841 ft 187 kts 139°
2026-05-04 16:16 50.81883 7.21969 2657 ft 224 kts 120°
2026-05-04 16:16 50.80971 7.29599 4668 ft 264 kts 97°
2026-05-04 16:17 50.80462 7.35609 6376 ft 281 kts 99°
2026-05-04 16:18 50.79636 7.44924 9080 ft 293 kts 99°
2026-05-04 16:18 50.79353 7.48136 9930 ft 297 kts 99°
2026-05-04 16:19 50.78511 7.58808 10903 ft 362 kts 91°
2026-05-04 16:19 50.79222 7.66888 12075 ft 377 kts 81°
2026-05-04 16:20 50.80602 7.79336 14028 ft 390 kts 82°
2026-05-04 16:20 50.81527 7.87889 15234 ft 398 kts 82°
2026-05-04 16:21 50.82282 8.01086 16950 ft 406 kts 102°
2026-05-04 16:22 50.80132 8.09258 18034 ft 405 kts 129°
2026-05-04 16:22 50.73627 8.17469 19688 ft 406 kts 151°
2026-05-04 16:23 50.66384 8.24723 21196 ft 415 kts 151°
2026-05-04 16:24 50.56493 8.34625 22927 ft 426 kts 151°
2026-05-04 16:25 50.51456 8.39648 23724 ft 431 kts 152°
2026-05-04 16:26 50.41191 8.49828 25173 ft 441 kts 152°
2026-05-04 16:26 50.33275 8.57271 26205 ft 447 kts 155°
2026-05-04 16:27 50.27743 8.61781 26861 ft 450 kts 157°
2026-05-04 16:28 50.19330 8.68618 27761 ft 457 kts 156°
2026-05-04 16:28 50.10865 8.75677 28600 ft 462 kts 157°
2026-05-04 16:29 49.98739 8.78592 30145 ft 438 kts 192°
2026-05-04 16:30 49.89682 8.76686 31262 ft 437 kts 191°
2026-05-04 16:31 49.83668 8.75459 32062 ft 434 kts 191°
2026-05-04 16:31 49.74723 8.73622 33234 ft 431 kts 191°
2026-05-04 16:32 49.65839 8.71795 34391 ft 427 kts 191°
2026-05-04 16:33 49.59954 8.70602 35106 ft 426 kts 191°
2026-05-04 16:33 49.54105 8.69436 35761 ft 426 kts 191°
2026-05-04 16:34 49.48241 8.68264 36387 ft 425 kts 191°
2026-05-04 16:34 49.45286 8.67862 36672 ft 428 kts 185°
2026-05-04 16:35 49.36422 8.67545 36970 ft 419 kts 185°
2026-05-04 16:35 49.27702 8.67207 36979 ft 417 kts 185°
2026-05-04 16:36 49.19030 8.66883 36980 ft 417 kts 185°
2026-05-04 16:37 49.10414 8.65823 36973 ft 411 kts 198°
2026-05-04 16:38 48.99992 8.58980 36972 ft 409 kts 203°
2026-05-04 16:39 48.86055 8.54147 36976 ft 412 kts 194°
2026-05-04 16:40 48.74819 8.50523 36985 ft 412 kts 195°
2026-05-04 16:41 48.60805 8.46016 36989 ft 412 kts 194°
2026-05-04 16:43 48.46763 8.41529 36990 ft 412 kts 194°
2026-05-04 16:43 48.38371 8.38872 36990 ft 413 kts 194°
2026-05-04 16:45 48.21520 8.33542 36993 ft 411 kts 194°
2026-05-04 16:46 48.12939 8.33105 36985 ft 419 kts 174°
2026-05-04 16:46 48.07273 8.34507 36984 ft 419 kts 174°
2026-05-04 16:47 47.95746 8.37282 36985 ft 419 kts 174°
2026-05-04 16:48 47.84796 8.39915 36983 ft 419 kts 174°
2026-05-04 16:49 47.73264 8.42668 36988 ft 420 kts 174°
2026-05-04 16:50 47.61676 8.44942 36990 ft 419 kts 178°
2026-05-04 16:51 47.53004 8.46057 36991 ft 419 kts 178°
2026-05-04 16:52 47.41360 8.47745 36988 ft 420 kts 178°
2026-05-04 16:53 47.32617 8.49042 36995 ft 421 kts 178°
2026-05-04 16:54 47.20986 8.50737 36999 ft 421 kts 178°
2026-05-04 16:55 47.03441 8.53284 37003 ft 422 kts 178°
2026-05-04 16:56 46.88827 8.55393 36992 ft 423 kts 178°
2026-05-04 16:57 46.80071 8.56654 36991 ft 423 kts 178°
2026-05-04 16:58 46.68329 8.58330 36997 ft 423 kts 178°
2026-05-04 17:00 46.50734 8.60816 37013 ft 424 kts 179°
2026-05-04 17:01 46.37001 8.62764 37033 ft 425 kts 179°
2026-05-04 17:02 46.25206 8.64422 37039 ft 425 kts 179°
2026-05-04 17:03 46.16401 8.65656 37040 ft 425 kts 179°
2026-05-04 17:03 46.07728 8.68614 37043 ft 437 kts 158°
2026-05-04 17:04 45.96992 8.77024 37055 ft 440 kts 156°
2026-05-04 17:05 45.86346 8.85312 37059 ft 442 kts 156°
2026-05-04 17:06 45.78234 8.91615 37062 ft 442 kts 156°
2026-05-04 17:07 45.71020 8.97191 37061 ft 442 kts 156°
2026-05-04 17:07 45.64840 9.02398 37058 ft 449 kts 146°
2026-05-04 17:08 45.58284 9.12138 37054 ft 455 kts 136°
2026-05-04 17:09 45.54024 9.18825 37052 ft 455 kts 136°
2026-05-04 17:09 45.49760 9.25499 37047 ft 455 kts 136°
2026-05-04 17:10 45.39107 9.42128 37042 ft 455 kts 136°
2026-05-04 17:11 45.34826 9.48787 37048 ft 456 kts 136°
2026-05-04 17:12 45.28421 9.58712 37042 ft 456 kts 136°
2026-05-04 17:13 45.17688 9.75290 37046 ft 456 kts 136°
2026-05-04 17:14 45.09078 9.88515 37043 ft 456 kts 136°
2026-05-04 17:15 45.02617 9.98366 37041 ft 457 kts 136°
2026-05-04 17:16 44.93953 10.11563 37037 ft 458 kts 136°
2026-05-04 17:17 44.84692 10.23704 37026 ft 449 kts 157°
2026-05-04 17:17 44.75841 10.26354 37033 ft 430 kts 189°
2026-05-04 17:18 44.72910 10.25718 37031 ft 424 kts 199°
2026-05-04 17:19 44.61572 10.21308 37049 ft 425 kts 200°
2026-05-04 17:20 44.50150 10.16900 37061 ft 425 kts 200°
2026-05-04 17:20 44.41552 10.13738 37082 ft 426 kts 199°
2026-05-04 17:21 44.30004 10.09745 37093 ft 427 kts 199°
2026-05-04 17:22 44.27172 10.08752 36680 ft 422 kts 199°
2026-05-04 17:22 44.24292 10.08001 36022 ft 421 kts 190°
2026-05-04 17:23 44.15565 10.09490 33797 ft 423 kts 169°
2026-05-04 17:23 44.12734 10.10523 33092 ft 418 kts 170°
2026-05-04 17:23 44.07508 10.12390 31772 ft 409 kts 170°
2026-05-04 17:24 44.04760 10.13367 31064 ft 405 kts 170°
2026-05-04 17:24 43.96727 10.16312 28989 ft 393 kts 169°
2026-05-04 17:25 43.94081 10.17135 28317 ft 385 kts 179°
2026-05-04 17:25 43.89041 10.15937 27007 ft 362 kts 210°
2026-05-04 17:26 43.85292 10.11591 25568 ft 350 kts 229°
2026-05-04 17:26 43.81153 10.03426 23364 ft 342 kts 238°
2026-05-04 17:27 43.78365 9.98180 21942 ft 337 kts 223°
2026-05-04 17:27 43.74486 9.94680 20551 ft 334 kts 196°
2026-05-04 17:28 43.70104 9.96022 19198 ft 339 kts 140°
2026-05-04 17:29 43.65752 10.03713 17126 ft 336 kts 126°
2026-05-04 17:29 43.61844 10.11491 15460 ft 317 kts 128°
2026-05-04 17:30 43.58043 10.18575 13954 ft 299 kts 129°
2026-05-04 17:31 43.55576 10.23094 12885 ft 291 kts 129°
2026-05-04 17:31 43.51998 10.29651 11254 ft 281 kts 129°
2026-05-04 17:32 43.49884 10.33861 10053 ft 286 kts 112°
2026-05-04 17:33 43.52029 10.40419 9411 ft 256 kts 37°
2026-05-04 17:33 43.53461 10.41787 9207 ft 247 kts 33°
2026-05-04 17:34 43.57543 10.45599 8557 ft 222 kts 36°
2026-05-04 17:34 43.58789 10.46834 8403 ft 223 kts 36°
2026-05-04 17:35 43.62514 10.50607 7885 ft 221 kts 37°
2026-05-04 17:35 43.64975 10.53133 7548 ft 219 kts 36°
2026-05-04 17:35 43.66182 10.54374 7381 ft 219 kts 37°
2026-05-04 17:36 43.67397 10.55626 7211 ft 216 kts 37°
2026-05-04 17:36 43.68605 10.56871 7045 ft 217 kts 37°
2026-05-04 17:36 43.69812 10.58120 6877 ft 216 kts 37°
2026-05-04 17:36 43.71018 10.59369 6708 ft 217 kts 37°
2026-05-04 17:37 43.72217 10.60620 6542 ft 215 kts 37°
2026-05-04 17:37 43.73410 10.61867 6372 ft 215 kts 38°
2026-05-04 17:37 43.74601 10.63109 6214 ft 214 kts 37°
2026-05-04 17:37 43.75791 10.64348 6050 ft 214 kts 37°
2026-05-04 17:38 43.76977 10.65582 5886 ft 213 kts 37°
2026-05-04 17:38 43.78231 10.66653 5722 ft 213 kts 20°
2026-05-04 17:38 43.79686 10.66895 5565 ft 211 kts 352°
2026-05-04 17:38 43.81046 10.66232 5386 ft 207 kts 325°
2026-05-04 17:39 43.83058 10.63445 5047 ft 204 kts 310°
2026-05-04 17:39 43.84028 10.62014 4882 ft 204 kts 311°
2026-05-04 17:39 43.84987 10.60599 4718 ft 203 kts 311°
2026-05-04 17:40 43.85956 10.59173 4559 ft 203 kts 311°
2026-05-04 17:40 43.86697 10.57549 4388 ft 199 kts 285°
2026-05-04 17:40 43.86747 10.55664 4230 ft 195 kts 255°
2026-05-04 17:40 43.86133 10.54021 4075 ft 193 kts 230°
2026-05-04 17:41 43.85276 10.52582 3913 ft 193 kts 229°
2026-05-04 17:41 43.84428 10.51142 3755 ft 192 kts 230°
2026-05-04 17:41 43.83493 10.49838 3622 ft 191 kts 213°
2026-05-04 17:41 43.82290 10.49011 3305 ft 193 kts 204°
2026-05-04 17:42 43.81072 10.48242 2980 ft 192 kts 204°
2026-05-04 17:42 43.79860 10.47485 2676 ft 190 kts 204°
2026-05-04 17:42 43.78671 10.46745 2379 ft 185 kts 204°
2026-05-04 17:42 43.77506 10.46015 2089 ft 182 kts 204°
2026-05-04 17:43 43.76382 10.45308 1818 ft 171 kts 204°
2026-05-04 17:43 43.75351 10.44661 1575 ft 159 kts 203°
2026-05-04 17:43 43.74378 10.44050 1318 ft 148 kts 204°
2026-05-04 17:43 43.73473 10.43484 1095 ft 138 kts 204°
2026-05-04 17:44 43.72642 10.42959 899 ft 127 kts 202°
2026-05-04 17:44 43.71854 10.42463 683 ft 123 kts 202°
2026-05-04 17:44 43.71079 10.41981 486 ft 122 kts 204°
2026-05-04 17:44 43.70342 10.41420 290 ft 121 kts 212°
2026-05-04 17:45 43.69658 10.40749 149 ft 120 kts 214°
2026-05-04 17:45 43.68990 10.40054 16 ft 118 kts 215°
2026-05-04 17:45 43.68487 10.39538 9 ft 53 kts 217°
2026-05-04 17:45 43.68208 10.39248 9 ft 38 kts 217°
2026-05-04 17:46 43.68164 10.39090 10 ft 19 kts 305°
2026-05-04 17:46 43.68247 10.38937 8 ft 22 kts 307°
2026-05-04 17:46 43.68369 10.38928 10 ft 21 kts 35°
2026-05-04 17:46 43.68508 10.38975 11 ft 22 kts 354°
2026-05-04 17:47 43.68553 10.38965 11 ft 0 kts 350°
2026-05-04 17:47 43.68598 10.38967 11 ft 11 kts 17°
2026-05-04 17:47 43.68619 10.39057 13 ft 12 kts 118°
2026-05-04 17:48 43.68558 10.39153 12 ft 15 kts 131°
2026-05-04 17:48 43.68553 10.39276 9 ft 17 kts 43°
2026-05-04 17:48 43.68659 10.39380 8 ft 21 kts 35°
2026-05-04 17:48 43.68785 10.39507 8 ft 24 kts 36°
2026-05-04 17:49 43.68928 10.39658 7 ft 29 kts 38°
2026-05-04 17:49 43.69089 10.39830 9 ft 25 kts 37°
2026-05-04 17:49 43.69197 10.39912 11 ft 29 kts
2026-05-04 17:49 43.69385 10.39887 11 ft 22 kts
2026-05-04 17:50 43.69601 10.39932 12 ft 20 kts
2026-05-04 17:50 43.69639 10.39989 11 ft 11 kts 100°
2026-05-04 17:50 43.69637 10.40001 11 ft 0 kts 103°